GW1238 Weather Reports


Display with metric or nautical units.
time (UTC)temp
F
wind
direction
speed
MPH
gust
MPH
rain 1hr
in
rain 24hr
in
rain mn
in
humidity
%
barometer
mb
20260508213349 72 183 0.0 2.0 0.00 0.00 0.00 47 1016.6
20260508212844 73 187 1.0 2.0 0.00 0.00 0.00 48 1016.5
20260508212341 72 283 1.0 3.0 0.00 0.00 0.00 49 1016.5
20260508211837 72 188 2.0 3.0 0.00 0.00 0.00 49 1016.7
20260508211333 71 196 3.0 6.0 0.00 0.00 0.00 44 1016.8
20260508210831 72 182 1.0 2.0 0.00 0.00 0.00 43 1016.8
20260508210327 72 168 1.0 4.0 0.00 0.00 0.00 44 1016.8
20260508205824 72 195 3.0 4.0 0.00 0.00 0.00 43 1017.0
20260508205320 74 195 4.0 4.0 0.00 0.00 0.00 40 1016.9
20260508204816 73 178 1.0 4.0 0.00 0.00 0.00 38 1017.3
20260508204313 73 170 2.0 3.0 0.00 0.00 0.00 39 1017.2
20260508203809 73 182 4.0 4.0 0.00 0.00 0.00 40 1017.2
20260508203305 74 197 2.0 3.0 0.00 0.00 0.00 38 1017.1
20260508202801 72 158 1.0 2.0 0.00 0.00 0.00 44 1017.1
20260508202259 72 193 1.0 2.0 0.00 0.00 0.00 38 1017.2
20260508201756 73 164 2.0 3.0 0.00 0.00 0.00 39 1017.2
20260508201252 73 181 0.0 2.0 0.00 0.00 0.00 39 1017.0
20260508200749 72 124 1.0 1.0 0.00 0.00 0.00 41 1017.5
20260508200245 74 134 0.0 0.0 0.00 0.00 0.00 38 1017.3
20260508195741 75 168 0.0 2.0 0.00 0.00 0.00 38 1017.3
20260508195238 74 170 1.0 2.0 0.00 0.00 0.00 37 1017.5
20260508194735 75 206 2.0 2.0 0.00 0.00 0.00 37 1017.4
20260508194232 74 204 0.0 2.0 0.00 0.00 0.00 35 1017.8
20260508193729 74 154 1.0 1.0 0.00 0.00 0.00 39 1017.9
20260508193225 75 166 1.0 2.0 0.00 0.00 0.00 37 1017.9
20260508192722 74 157 0.0 2.0 0.00 0.00 0.00 38 1017.7
20260508192219 73 135 1.0 2.0 0.00 0.00 0.00 39 1018.0
20260508191716 74 198 1.0 2.0 0.00 0.00 0.00 37 1018.1
20260508191213 73 160 0.0 1.0 0.00 0.00 0.00 38 1018.1
20260508190710 72 137 0.0 0.0 0.00 0.00 0.00 40 1018.4
20260508190206 71 153 0.0 1.0 0.00 0.00 0.00 39 1018.4
20260508185703 70 97 1.0 2.0 0.00 0.00 0.00 44 1018.0
20260508185200 72 128 1.0 2.0 0.00 0.00 0.00 38 1018.2
20260508184658 74 153 0.0 1.0 0.00 0.00 0.00 39 1018.7
20260508184155 73 192 1.0 2.0 0.00 0.00 0.00 38 1018.7
20260508183652 72 187 1.0 1.0 0.00 0.00 0.00 40 1019.0
20260508183148 71 146 0.0 1.0 0.00 0.00 0.00 40 1019.0
20260508182644 71 143 0.0 1.0 0.00 0.00 0.00 39 1019.1
20260508182141 71 152 1.0 3.0 0.00 0.00 0.00 42 1019.2
20260508181636 72 176 4.0 4.0 0.00 0.00 0.00 43 1019.2
20260508181134 73 170 0.0 1.0 0.00 0.00 0.00 41 1019.3
20260508180630 71 123 1.0 1.0 0.00 0.00 0.00 38 1019.4
20260508180127 73 164 0.0 1.0 0.00 0.00 0.00 41 1019.2
20260508175623 72 160 0.0 1.0 0.00 0.00 0.00 41 1019.3
20260508175120 71 135 0.0 1.0 0.00 0.00 0.00 42 1019.4
20260508174618 70 138 0.0 2.0 0.00 0.00 0.00 41 1019.5
20260508174115 72 178 2.0 2.0 0.00 0.00 0.00 39 1019.7
20260508173612 72 172 1.0 1.0 0.00 0.00 0.00 42 1019.8
20260508173108 71 166 0.0 2.0 0.00 0.00 0.00 41 1019.6
20260508172605 71 166 0.0 2.0 0.00 0.00 0.00 42 1019.8
20260508172101 70 170 1.0 2.0 0.00 0.00 0.00 46 1019.9
20260508171558 69 144 0.0 0.0 0.00 0.00 0.00 49 1020.0
20260508171054 68 127 0.0 0.0 0.00 0.00 0.00 46 1020.0
20260508170552 68 220 0.0 1.0 0.00 0.00 0.00 46 1020.3
20260508170049 66 108 1.0 3.0 0.00 0.00 0.00 47 1020.0
20260508165546 67 106 1.0 1.0 0.00 0.00 0.00 46 1019.9
20260508165043 70 184 0.0 1.0 0.00 0.00 0.00 47 1020.4
20260508164539 67 130 0.0 1.0 0.00 0.00 0.00 47 1020.3
20260508164036 66 61 1.0 2.0 0.00 0.00 0.00 46 1020.9
20260508163534 67 131 0.0 0.0 0.00 0.00 0.00 50 1020.7
20260508163030 67 135 0.0 2.0 0.00 0.00 0.00 49 1020.8
20260508162527 69 87 0.0 1.0 0.00 0.00 0.00 45 1021.0
20260508162025 70 196 1.0 1.0 0.00 0.00 0.00 43 1020.8
20260508161521 70 144 0.0 0.0 0.00 0.00 0.00 48 1021.1
20260508161018 69 157 0.0 0.0 0.00 0.00 0.00 49 1020.8
20260508160517 68 177 1.0 3.0 0.00 0.00 0.00 49 1021.3
20260508160014 68 160 1.0 2.0 0.00 0.00 0.00 50 1021.5
20260508155510 67 146 1.0 1.0 0.00 0.00 0.00 51 1021.3
20260508155008 65 146 0.0 2.0 0.00 0.00 0.00 52 1021.4
20260508154505 64 69 2.0 2.0 0.00 0.00 0.00 54 1021.3
20260508154001 65 61 2.0 2.0 0.00 0.00 0.00 52 1021.3
20260508153458 66 130 1.0 1.0 0.00 0.00 0.00 52 1021.3
20260508152954 66 94 1.0 2.0 0.00 0.00 0.00 52 1021.5
20260508152451 67 139 0.0 1.0 0.00 0.00 0.00 53 1021.5
20260508151947 65 62 1.0 2.0 0.00 0.00 0.00 54 1021.6
20260508151444 68 158 0.0 0.0 0.00 0.00 0.00 56 1021.8
20260508150941 67 131 0.0 1.0 0.00 0.00 0.00 56 1021.7
20260508150437 64 107 0.0 1.0 0.00 0.00 0.00 59 1021.6
20260508145933 63 78 0.0 1.0 0.00 0.00 0.00 61 1021.5
20260508145430 63 51 1.0 1.0 0.00 0.00 0.00 62 1021.7
20260508144927 62 107 1.0 2.0 0.00 0.00 0.00 65 1021.7
20260508144425 61 63 2.0 2.0 0.00 0.00 0.00 65 1021.9
20260508143922 61 102 1.0 2.0 0.00 0.00 0.00 64 1021.9
20260508143419 60 81 2.0 3.0 0.00 0.00 0.00 65 1021.8
20260508142915 61 68 2.0 3.0 0.00 0.00 0.00 65 1021.8
20260508142413 61 147 1.0 2.0 0.00 0.00 0.00 62 1021.7
20260508141909 61 113 0.0 2.0 0.00 0.00 0.00 63 1022.0
20260508141406 61 62 1.0 2.0 0.00 0.00 0.00 61 1022.0
20260508140904 60 109 2.0 2.0 0.00 0.00 0.00 63 1022.1
20260508140400 60 91 2.0 3.0 0.00 0.00 0.00 64 1022.0
20260508135856 60 106 1.0 2.0 0.00 0.00 0.00 63 1022.0
20260508135352 59 64 2.0 4.0 0.00 0.00 0.00 63 1021.6
20260508134849 59 76 2.0 6.0 0.00 0.00 0.00 65 1021.9
20260508134345 60 37 2.0 4.0 0.00 0.00 0.00 63 1021.7
20260508133842 59 89 1.0 4.0 0.00 0.00 0.00 63 1021.7
20260508133340 60 120 0.0 3.0 0.00 0.00 0.00 62 1021.8
20260508132837 59 358 2.0 4.0 0.00 0.00 0.00 65 1021.7
20260508132335 59 88 2.0 3.0 0.00 0.00 0.00 65 1021.9
20260508131831 59 67 2.0 3.0 0.00 0.00 0.00 65 1021.9
20260508131327 59 85 1.0 2.0 0.00 0.00 0.00 64 1021.7
20260508130824 60 99 1.0 2.0 0.00 0.00 0.00 64 1021.8
20260508130321 60 119 0.0 1.0 0.00 0.00 0.00 63 1021.8
20260508125817 60 81 2.0 3.0 0.00 0.00 0.00 66 1021.8
20260508125313 62 135 0.0 0.0 0.00 0.00 0.00 66 1021.9
20260508124811 59 98 0.0 1.0 0.00 0.00 0.00 66 1021.9
20260508124308 61 117 0.0 1.0 0.00 0.00 0.00 66 1021.8
20260508123806 59 103 0.0 0.0 0.00 0.00 0.00 75 1022.2
20260508123304 56 4 0.0 0.0 0.00 0.00 0.00 77 1022.1
20260508122800 55 297 0.0 2.0 0.00 0.00 0.00 79 1021.9
20260508122257 55 326 1.0 1.0 0.00 0.00 0.00 80 1021.7
20260508121754 53 300 1.0 3.0 0.00 0.00 0.00 83 1021.5
20260508121253 52 270 1.0 3.0 0.00 0.00 0.00 86 1021.7
20260508120749 52 293 1.0 2.0 0.00 0.00 0.00 89 1021.7
20260508120248 51 289 2.0 2.0 0.00 0.00 0.00 90 1021.7
20260508115745 50 290 2.0 2.0 0.00 0.00 0.00 90 1021.6
20260508115242 49 282 2.0 3.0 0.00 0.00 0.00 90 1021.4
20260508114733 49 296 2.0 2.0 0.00 0.00 0.00 91 1021.4
20260508114230 48 293 2.0 3.0 0.00 0.00 0.00 91 1021.1
20260508113726 48 290 2.0 4.0 0.00 0.00 0.00 91 1020.9
20260508113225 47 299 2.0 3.0 0.00 0.00 0.00 91 1020.9
20260508112721 47 304 2.0 3.0 0.00 0.00 0.00 91 1020.9
20260508112218 47 297 3.0 3.0 0.00 0.00 0.00 92 1020.8
20260508111715 46 294 2.0 3.0 0.00 0.00 0.00 92 1020.9
20260508111213 46 296 3.0 3.0 0.00 0.00 0.00 93 1020.6
20260508110710 46 295 2.0 3.0 0.00 0.00 0.00 93 1020.5
20260508110207 46 293 2.0 3.0 0.00 0.00 0.00 93 1020.4
20260508105706 46 298 3.0 3.0 0.00 0.00 0.00 93 1020.3
20260508105204 46 305 3.0 3.0 0.00 0.00 0.00 92 1020.2
20260508104701 46 302 3.0 4.0 0.00 0.00 0.00 92 1020.2
20260508104158 46 314 2.0 3.0 0.00 0.00 0.00 92 1020.1
20260508103655 46 299 3.0 3.0 0.00 0.00 0.00 91 1020.1
20260508103152 46 297 3.0 3.0 0.00 0.00 0.00 91 1019.9
20260508102649 46 293 3.0 3.0 0.00 0.00 0.00 92 1020.0
20260508102147 46 302 2.0 3.0 0.00 0.00 0.00 92 1019.8
20260508101644 47 298 2.0 3.0 0.00 0.00 0.00 91 1019.8
20260508101141 47 296 2.0 3.0 0.00 0.00 0.00 91 1019.7
20260508100638 48 303 2.0 2.0 0.00 0.00 0.00 91 1019.6
20260508100136 48 300 3.0 3.0 0.00 0.00 0.00 90 1019.7
20260508095633 48 302 3.0 3.0 0.00 0.00 0.00 90 1019.8
20260508095130 47 299 3.0 4.0 0.00 0.00 0.00 89 1019.8
20260508094627 48 289 3.0 3.0 0.00 0.00 0.00 90 1019.6
20260508094124 48 295 3.0 3.0 0.00 0.00 0.00 90 1019.7
20260508093621 48 285 2.0 3.0 0.00 0.00 0.00 89 1019.7
20260508093119 48 295 2.0 3.0 0.00 0.00 0.00 88 1019.6
20260508092616 49 287 2.0 3.0 0.00 0.00 0.00 89 1019.6
20260508092114 49 291 2.0 2.0 0.00 0.00 0.00 88 1019.6
20260508091611 49 281 1.0 2.0 0.00 0.00 0.00 88 1019.5
20260508091108 49 296 1.0 2.0 0.00 0.00 0.00 89 1019.6
20260508090606 49 288 2.0 2.0 0.00 0.00 0.00 88 1019.6
20260508090103 49 293 2.0 2.0 0.00 0.00 0.00 88 1019.4
20260508085559 49 298 2.0 2.0 0.00 0.00 0.00 88 1019.5
20260508085056 49 286 2.0 2.0 0.00 0.00 0.00 88 1019.4
20260508084552 50 298 2.0 2.0 0.00 0.00 0.00 88 1019.4
20260508084049 50 302 2.0 2.0 0.00 0.00 0.00 88 1019.4
20260508083547 50 287 2.0 2.0 0.00 0.00 0.00 88 1019.4
20260508083043 51 282 2.0 2.0 0.00 0.00 0.00 88 1019.4
20260508082539 51 302 1.0 2.0 0.00 0.00 0.00 88 1019.3
20260508082037 51 282 2.0 2.0 0.00 0.00 0.00 87 1019.2
20260508081534 51 286 2.0 2.0 0.00 0.00 0.00 86 1019.4
20260508081030 51 283 1.0 3.0 0.00 0.00 0.00 87 1019.5
20260508080529 51 284 2.0 2.0 0.00 0.00 0.00 87 1019.5
20260508080025 52 295 1.0 1.0 0.00 0.00 0.00 86 1019.5
20260508075522 52 286 1.0 1.0 0.00 0.00 0.00 86 1019.2
20260508075019 51 339 1.0 1.0 0.00 0.00 0.00 86 1019.5
20260508074517 51 300 1.0 1.0 0.00 0.00 0.00 88 1019.3
20260508074014 51 289 1.0 2.0 0.00 0.00 0.00 88 1019.5
20260508073511 52 304 1.0 2.0 0.00 0.00 0.00 88 1019.5
20260508073009 52 333 0.0 2.0 0.00 0.00 0.00 88 1019.4
20260508072504 51 316 2.0 2.0 0.00 0.00 0.00 89 1019.5
20260508072002 52 298 1.0 2.0 0.00 0.00 0.00 89 1019.5
20260508071459 51 281 2.0 2.0 0.00 0.00 0.00 89 1019.5
20260508070957 51 311 1.0 2.0 0.00 0.00 0.00 89 1019.6
20260508070454 51 290 2.0 2.0 0.00 0.00 0.00 88 1019.9
20260508065952 51 279 1.0 2.0 0.00 0.00 0.00 88 1019.7
20260508065450 51 280 2.0 2.0 0.00 0.00 0.00 89 1019.8
20260508064948 51 297 1.0 1.0 0.00 0.00 0.00 89 1019.7
20260508064445 51 299 2.0 2.0 0.00 0.00 0.00 89 1019.8
20260508063943 52 312 1.0 3.0 0.00 0.00 0.00 88 1019.8
20260508063440 51 298 2.0 3.0 0.00 0.00 0.00 87 1019.8
20260508062938 51 297 2.0 3.0 0.00 0.00 0.00 85 1019.8
20260508062436 52 295 2.0 2.0 0.00 0.00 0.00 85 1019.9
20260508061932 52 308 1.0 2.0 0.00 0.00 0.00 85 1020.0
20260508061430 52 291 1.0 2.0 0.00 0.00 0.00 86 1019.8
20260508060926 53 304 2.0 2.0 0.00 0.00 0.00 86 1019.9
20260508060424 53 310 2.0 2.0 0.00 0.00 0.00 84 1019.9
20260508055919 53 308 1.0 2.0 0.00 0.00 0.00 85 1020.0
20260508055416 53 278 1.0 2.0 0.00 0.00 0.00 85 1020.0
20260508054913 53 54 0.0 1.0 0.00 0.00 0.00 85 1019.8
20260508054410 53 23 0.0 1.0 0.00 0.00 0.00 85 1019.7
20260508053907 53 276 2.0 2.0 0.00 0.00 0.00 84 1019.7
20260508053404 54 284 1.0 2.0 0.00 0.00 0.00 83 1019.6
20260508052901 54 61 1.0 1.0 0.00 0.00 0.00 81 1019.8
20260508052359 54 325 1.0 2.0 0.00 0.00 0.00 84 1019.7
20260508051855 54 316 1.0 2.0 0.00 0.00 0.00 83 1019.5
20260508051350 55 65 0.0 1.0 0.00 0.00 0.00 79 1019.7
20260508050847 54 8 1.0 2.0 0.00 0.00 0.00 83 1019.6
20260508050344 54 296 3.0 3.0 0.00 0.00 0.00 85 1019.6
20260508045840 54 301 3.0 3.0 0.00 0.00 0.00 85 1019.7
20260508045337 54 303 2.0 3.0 0.00 0.00 0.00 85 1019.5
20260508044835 54 302 2.0 3.0 0.00 0.00 0.00 86 1019.7
20260508044331 54 297 2.0 3.0 0.00 0.00 0.00 86 1019.7
20260508043827 54 301 3.0 3.0 0.00 0.00 0.00 87 1019.7
20260508043324 55 279 2.0 3.0 0.00 0.00 0.00 87 1019.3
20260508042821 55 284 2.0 3.0 0.00 0.00 0.00 86 1019.2
20260508042319 55 293 2.0 3.0 0.00 0.00 0.00 86 1019.4
20260508041815 55 289 2.0 3.0 0.00 0.00 0.00 86 1019.4
20260508041312 55 309 2.0 2.0 0.00 0.00 0.00 85 1019.5
20260508040808 55 308 2.0 3.0 0.00 0.00 0.00 85 1019.4
20260508040306 55 297 2.0 3.0 0.00 0.00 0.00 86 1019.7
20260508035803 55 289 2.0 3.0 0.00 0.22 0.22 85 1019.4
20260508035300 55 299 2.0 3.0 0.00 0.22 0.22 86 1019.4
20260508034756 55 297 2.0 3.0 0.00 0.22 0.22 86 1019.4
20260508034254 55 294 2.0 3.0 0.00 0.22 0.22 87 1019.5
20260508033751 55 302 2.0 3.0 0.00 0.22 0.22 86 1019.4
20260508033249 55 300 2.0 3.0 0.00 0.22 0.22 85 1019.4
20260508032746 55 289 2.0 3.0 0.00 0.22 0.22 86 1019.4
20260508032243 55 285 2.0 3.0 0.00 0.22 0.22 88 1019.3
20260508031740 55 295 2.0 3.0 0.00 0.22 0.22 88 1019.4
20260508031236 55 291 2.0 2.0 0.00 0.22 0.22 89 1019.2
20260508030733 56 300 2.0 3.0 0.00 0.22 0.22 90 1019.1
20260508030230 55 306 2.0 3.0 0.00 0.22 0.22 90 1019.0
20260508025727 55 302 2.0 3.0 0.00 0.22 0.22 90 1019.0
20260508025224 55 297 2.0 3.0 0.00 0.22 0.22 90 1019.1
20260508024720 55 308 2.0 3.0 0.00 0.22 0.22 90 1019.0
20260508024217 55 288 2.0 3.0 0.00 0.22 0.22 90 1018.9
20260508023713 55 302 3.0 3.0 0.00 0.22 0.22 90 1019.0
20260508023211 55 279 2.0 3.0 0.00 0.22 0.22 91 1018.7
20260508022706 55 287 3.0 3.0 0.00 0.22 0.22 91 1018.9
20260508022204 55 287 2.0 3.0 0.00 0.22 0.22 91 1019.2
20260508021700 55 287 3.0 3.0 0.00 0.22 0.22 91 1019.0
20260508021155 55 300 3.0 4.0 0.00 0.22 0.22 91 1018.9
20260508020654 55 297 2.0 3.0 0.00 0.22 0.22 91 1019.1
20260508020151 55 293 3.0 3.0 0.00 0.22 0.22 91 1018.9
20260508015648 55 285 3.0 3.0 0.00 0.22 0.22 91 1018.9
20260508015145 55 295 2.0 3.0 0.00 0.22 0.22 91 1018.7
20260508014641 56 286 3.0 3.0 0.00 0.22 0.22 91 1018.8
20260508014137 55 283 2.0 3.0 0.00 0.22 0.22 91 1018.8
20260508013634 56 287 2.0 2.0 0.00 0.22 0.22 90 1018.5
20260508013131 56 296 2.0 3.0 0.00 0.22 0.22 90 1018.7
20260508012628 56 289 2.0 2.0 0.00 0.22 0.22 89 1018.5
20260508012125 56 302 2.0 2.0 0.00 0.22 0.22 89 1018.4
20260508011624 56 297 2.0 2.0 0.00 0.22 0.22 88 1018.3
20260508011120 56 302 2.0 2.0 0.00 0.22 0.22 88 1018.2
20260508010617 57 294 2.0 2.0 0.00 0.22 0.22 87 1017.9
20260508010115 57 282 2.0 2.0 0.00 0.22 0.22 86 1018.0
20260508005611 57 296 2.0 3.0 0.00 0.22 0.22 85 1018.1
20260508005108 58 297 2.0 2.0 0.00 0.22 0.22 85 1017.9
20260508004604 58 306 2.0 3.0 0.00 0.22 0.22 85 1017.8
20260508004101 58 295 2.0 2.0 0.00 0.22 0.22 85 1017.7
20260508003557 58 298 1.0 2.0 0.00 0.22 0.22 85 1017.6
20260508003055 59 292 1.0 2.0 0.00 0.22 0.22 85 1017.7
20260508002551 59 287 1.0 2.0 0.00 0.22 0.22 84 1017.5
20260508002049 60 286 1.0 2.0 0.00 0.22 0.22 83 1017.6
20260508001544 60 285 1.0 2.0 0.00 0.22 0.22 83 1017.5
20260508001041 61 264 1.0 2.0 0.00 0.22 0.22 81 1017.5
20260508000537 61 253 1.0 2.0 0.00 0.22 0.22 82 1017.3
20260508000034 62 280 1.0 3.0 0.00 0.22 0.22 78 1017.4
20260507235531 62 285 1.0 1.0 0.00 0.22 0.22 76 1017.4
20260507235028 63 283 1.0 1.0 0.00 0.22 0.22 74 1017.3
20260507234524 63 240 0.0 1.0 0.00 0.22 0.22 73 1017.2
20260507234021 64 278 1.0 2.0 0.00 0.22 0.22 73 1017.2
20260507233518 65 276 1.0 2.0 0.00 0.22 0.22 72 1017.0
20260507233017 66 300 3.0 3.0 0.00 0.22 0.22 63 1017.0
20260507232512 66 329 2.0 3.0 0.00 0.22 0.22 64 1017.3
20260507232010 67 281 2.0 3.0 0.00 0.22 0.22 64 1017.0
20260507231506 69 195 0.0 1.0 0.00 0.22 0.22 63 1017.5
20260507231003 68 185 0.0 1.0 0.00 0.22 0.22 62 1017.2
20260507230500 68 299 2.0 3.0 0.00 0.22 0.22 60 1017.0
20260507225955 68 114 1.0 2.0 0.00 0.22 0.22 60 1016.9
20260507225452 69 334 2.0 2.0 0.00 0.22 0.22 59 1017.1
20260507224948 69 307 1.0 4.0 0.00 0.22 0.22 60 1016.9
20260507224444 69 325 2.0 6.0 0.00 0.22 0.22 59 1017.2
20260507223941 69 72 1.0 4.0 0.00 0.22 0.22 58 1017.1
20260507223437 70 342 1.0 3.0 0.00 0.22 0.22 57 1017.2
20260507222935 69 357 1.0 2.0 0.00 0.22 0.22 57 1017.1
20260507222431 69 329 2.0 6.0 0.00 0.22 0.22 57 1017.1
20260507221927 70 309 2.0 3.0 0.00 0.22 0.22 58 1016.8
20260507221424 70 283 3.0 4.0 0.00 0.22 0.22 57 1016.9
20260507220920 71 260 1.0 2.0 0.00 0.22 0.22 57 1016.9
20260507220418 70 185 0.0 2.0 0.00 0.22 0.22 57 1016.9
20260507215914 69 97 2.0 3.0 0.00 0.22 0.22 62 1016.9
20260507215411 69 233 0.0 1.0 0.00 0.22 0.22 63 1017.0
20260507214908 68 329 2.0 3.0 0.00 0.22 0.22 59 1016.9
20260507214406 69 20 2.0 3.0 0.00 0.22 0.22 59 1016.9
20260507213901 69 158 0.0 3.0 0.00 0.22 0.22 60 1016.9